#timestamp,LO_Frequency,Hit,Temp,Hum 
1493928015.4,286047022.1,N,0.0,0.0
1493928035.2,286047025.9,N,0.0,0.0
1493928055.0,286047022.4,N,0.0,0.0
1493928055.9,286047022.4,N,0.0,0.0
1493928075.8,286047021.2,N,0.0,0.0
1493928095.6,286047019.3,N,0.0,0.0
1493928115.4,286047096.4,Y,0.0,0.0
1493928135.3,286046994.2,N,0.0,0.0
1493928155.1,286046995.8,N,0.0,0.0
1493928156.0,286046995.8,N,0.0,0.0
1493928175.8,286046997.3,N,0.0,0.0
1493928195.7,286046997.3,N,0.0,0.0
1493928215.5,286046995.2,N,0.0,0.0
1493928235.3,286046993.7,N,0.0,0.0
1493928255.2,286046978.5,N,0.0,0.0
1493928275.9,286046993.8,N,0.0,0.0
1493928295.8,286046758.1,Y,0.0,0.0
1493928315.6,286046891.9,Y,0.0,0.0
1493928335.4,286046832.0,Y,0.0,0.0
1493928355.3,286046749.7,Y,0.0,0.0
1493928375.1,286046684.5,Y,0.0,0.0
1493928395.9,286046622.2,Y,0.0,0.0
1493928415.7,286046567.5,Y,0.0,0.0
1493928435.5,286046509.8,Y,0.0,0.0
1493928455.4,286046447.7,Y,0.0,0.0
1493928475.2,286046394.0,Y,0.0,0.0
1493928495.1,286046339.6,Y,0.0,0.0
1493928496.0,286046339.6,Y,0.0,0.0
1493928515.8,286046230.4,Y,0.0,0.0
1493928535.7,286046183.9,Y,0.0,0.0
1493928555.5,286046143.3,Y,0.0,0.0
1493928575.3,286046104.4,Y,0.0,0.0
1493928595.2,286046067.2,Y,0.0,0.0
1493928615.0,286046048.6,Y,0.0,0.0
1493928615.9,286046048.6,Y,0.0,0.0
1493928635.8,286045974.4,Y,0.0,0.0
1493928655.6,286045966.5,Y,0.0,0.0
1493928675.4,286045948.8,Y,0.0,0.0
1493928695.3,286045943.5,Y,0.0,0.0
1493928715.1,286045926.3,Y,0.0,0.0
1493928735.9,286045920.6,Y,0.0,0.0
1493928755.7,286045903.9,Y,0.0,0.0
1493928775.6,286045901.5,Y,0.0,0.0
1493928795.4,286045912.1,Y,0.0,0.0
1493928815.2,286046460.6,N,0.0,0.0
1493928835.1,286046459.4,N,0.0,0.0
1493928836.0,286046459.4,N,0.0,0.0
1493928855.8,286046305.7,N,0.0,0.0
1493928875.6,286046195.9,Y,0.0,0.0
1493928895.5,286045945.7,Y,0.0,0.0
1493928915.3,286045967.1,Y,0.0,0.0
1493928935.1,286046255.6,N,0.0,0.0
1493928955.9,286045987.0,Y,0.0,0.0
1493928975.7,286046019.8,Y,0.0,0.0
1493928995.6,286046583.7,N,0.0,0.0
1493929015.4,286046584.5,N,0.0,0.0
1493929035.2,286046583.8,N,0.0,0.0
1493929055.1,286046586.7,N,0.0,0.0
1493929056.0,286046586.7,N,0.0,0.0
1493929075.8,286046588.4,N,0.0,0.0
1493929095.6,286046050.5,Y,0.0,0.0
1493929115.5,286046627.6,N,0.0,0.0
1493929135.3,286046096.4,Y,0.0,0.0
1493929155.1,286046391.2,N,0.0,0.0
1493929175.9,286046406.5,N,0.0,0.0
1493929195.7,286046129.4,N,0.0,0.0
1493929215.5,286046005.3,Y,0.0,0.0
1493929235.4,286046066.0,N,0.0,0.0
1493929255.2,286046064.7,N,0.0,0.0
1493929275.0,286046066.6,N,0.0,0.0
1493929275.9,286046066.6,N,0.0,0.0
1493929295.8,286046040.9,N,0.0,0.0
1493929315.6,286046059.6,N,0.0,0.0
1493929335.4,286046060.2,N,0.0,0.0
1493929355.3,286046058.5,N,0.0,0.0
1493929375.1,286046050.2,N,0.0,0.0
1493929376.0,286046050.2,N,0.0,0.0
1493929395.8,286046048.0,N,0.0,0.0
1493929415.7,286046046.7,N,0.0,0.0
1493929435.5,286046047.4,N,0.0,0.0
1493929455.3,286046045.0,N,0.0,0.0
1493929475.2,286046043.7,N,0.0,0.0
1493929495.9,286046040.7,N,0.0,0.0
1493929515.7,286046038.2,N,0.0,0.0
1493929535.5,286046026.1,N,0.0,0.0
1493929555.4,286046037.2,N,0.0,0.0
1493929575.2,286046029.5,N,0.0,0.0
1493929595.0,286046032.1,N,0.0,0.0
1493929595.9,286046032.1,N,0.0,0.0
1493929615.8,286046030.2,N,0.0,0.0
1493929635.6,286046036.4,N,0.0,0.0
1493929655.4,286046029.6,N,0.0,0.0
1493929675.3,286046030.7,N,0.0,0.0
1493929695.1,286046028.9,N,0.0,0.0
1493929715.8,286046029.8,N,0.0,0.0
1493929735.7,286046035.3,N,0.0,0.0
1493929755.5,286046035.6,N,0.0,0.0
1493929775.3,286046036.2,N,0.0,0.0
1493929795.2,286046035.6,N,0.0,0.0
1493929815.9,286046036.5,N,0.0,0.0
1493929835.7,286046039.6,N,0.0,0.0
1493929855.6,286046191.8,N,0.0,0.0
1493929875.4,286046191.8,N,0.0,0.0
1493929895.2,286046193.6,N,0.0,0.0
1493929915.1,286046195.2,N,0.0,0.0
1493929916.0,286046195.2,N,0.0,0.0
1493929935.8,286046193.8,N,0.0,0.0
1493929955.6,286046195.4,N,0.0,0.0
1493929975.5,286046205.3,N,0.0,0.0
1493929995.3,286046204.1,N,0.0,0.0
1493930015.1,286046269.7,N,0.0,0.0
1493930035.8,286046272.6,N,0.0,0.0
1493930055.7,286046272.9,N,0.0,0.0
1493930075.5,286046271.4,N,0.0,0.0
1493930095.3,286046266.4,N,0.0,0.0
1493930115.2,286046265.9,N,0.0,0.0
1493930135.0,286046264.7,N,0.0,0.0
1493930135.9,286046264.7,N,0.0,0.0
1493930155.7,286046264.4,N,0.0,0.0
1493930175.6,286046263.7,N,0.0,0.0
1493930195.4,286046264.9,N,0.0,0.0
1493930215.2,286046264.7,N,0.0,0.0
1493930235.1,286046263.8,N,0.0,0.0
1493930236.0,286046263.8,N,0.0,0.0
1493930255.8,286046267.1,N,0.0,0.0
1493930275.6,286046267.4,N,0.0,0.0
1493930295.5,286046737.5,N,0.0,0.0
1493930315.3,286046215.9,N,0.0,0.0
1493930335.1,286046718.0,N,0.0,0.0
1493930355.9,286046465.7,N,0.0,0.0
1493930375.7,286046219.8,N,0.0,0.0
1493930395.5,286046714.1,N,0.0,0.0
1493930415.4,286046714.2,N,0.0,0.0
1493930435.2,286046216.2,N,0.0,0.0
1493930455.0,286046715.8,N,0.0,0.0
1493930455.9,286046715.8,N,0.0,0.0
1493930475.8,286046714.1,N,0.0,0.0
1493930495.6,286046714.8,N,0.0,0.0
1493930515.4,286046710.3,N,0.0,0.0
1493930535.3,286046711.3,N,0.0,0.0
1493930555.1,286046714.6,N,0.0,0.0
1493930556.0,286046714.6,N,0.0,0.0
1493930575.8,286046711.4,N,0.0,0.0
1493930595.7,286046711.3,N,0.0,0.0
1493930615.5,286046707.9,N,0.0,0.0
1493930635.3,286046707.2,N,0.0,0.0
1493930655.1,286046710.2,N,0.0,0.0
1493930675.9,286046710.8,N,0.0,0.0
1493930695.7,286046710.6,N,0.0,0.0
1493930715.5,286046728.4,N,0.0,0.0
1493930735.4,286046715.8,N,0.0,0.0
1493930755.2,286046704.2,N,0.0,0.0
1493930775.0,286046722.6,N,0.0,0.0
1493930775.9,286046722.6,N,0.0,0.0
1493930795.8,286046709.9,N,0.0,0.0
1493930815.6,286046706.9,N,0.0,0.0
1493930835.4,286046709.9,N,0.0,0.0
1493930855.3,286046723.0,N,0.0,0.0
1493930875.1,286046709.3,N,0.0,0.0
1493930876.0,286046709.3,N,0.0,0.0
1493930895.8,286046706.6,N,0.0,0.0
1493930915.7,286046708.1,N,0.0,0.0
1493930935.5,286046706.3,N,0.0,0.0
1493930955.3,286046706.6,N,0.0,0.0
1493930975.2,286046706.5,N,0.0,0.0
1493930995.9,286046703.0,N,0.0,0.0
1493931015.7,286046703.8,N,0.0,0.0
1493931035.6,286046710.3,N,0.0,0.0
1493931055.4,286046705.6,N,0.0,0.0
1493931075.2,286046706.5,N,0.0,0.0
1493931095.0,286046718.7,N,0.0,0.0
1493931096.0,286046718.7,N,0.0,0.0
1493931115.8,286046716.3,N,0.0,0.0
1493931135.6,286046717.7,N,0.0,0.0
1493931155.4,286046712.0,N,0.0,0.0
1493931175.3,286046712.3,N,0.0,0.0
1493931195.1,286046712.2,N,0.0,0.0
1493931215.8,286046704.3,N,0.0,0.0
1493931235.7,286046705.1,N,0.0,0.0
1493931255.5,286046710.1,N,0.0,0.0
1493931275.3,286046702.2,N,0.0,0.0
1493931295.2,286046703.6,N,0.0,0.0
1493931315.9,286046699.8,N,0.0,0.0
1493931335.7,286046699.4,N,0.0,0.0
1493931355.6,286046471.0,N,0.0,0.0
1493931375.4,286046468.8,N,0.0,0.0
1493931395.2,286046192.7,N,0.0,0.0
1493931415.1,286046193.1,N,0.0,0.0
1493931416.0,286046193.1,N,0.0,0.0
1493931435.8,286046191.3,N,0.0,0.0
1493931455.6,286046190.6,N,0.0,0.0
1493931475.5,286046193.1,N,0.0,0.0
1493931495.3,286046190.3,N,0.0,0.0
1493931515.1,286046229.6,N,0.0,0.0
1493931535.9,286046229.7,N,0.0,0.0
1493931555.7,286046463.3,N,0.0,0.0
1493931575.5,286046464.9,N,0.0,0.0
1493931595.4,286046206.4,N,0.0,0.0
